Time,TemperatureF,DewpointF,PressureIn,WindDirection,WindDirectionDegrees,WindSpeedMPH,WindSpeedGustMPH,Humidity,HourlyPrecipIn,Conditions,Clouds,dailyrainin,SoftwareType,DateUTC
2013-02-18 00:00:00,39.7,31.1,-100.00,ESE,111,6.0,13.0,71,0.00,,,0.00,meteohub,2013-02-18 06:00:00,
2013-02-18 00:05:00,39.9,31.3,-100.00,ENE,77,9.0,16.0,71,0.00,,,0.00,meteohub,2013-02-18 06:05:00,
2013-02-18 00:10:00,40.3,31.3,-100.00,East,86,5.0,16.0,70,0.00,,,0.00,meteohub,2013-02-18 06:10:00,
2013-02-18 00:15:00,40.3,31.3,-100.00,SSE,148,8.0,16.0,70,0.00,,,0.00,meteohub,2013-02-18 06:15:00,
2013-02-18 00:20:00,40.5,31.5,-100.00,SE,146,10.0,15.0,70,0.00,,,0.00,meteohub,2013-02-18 06:20:00,
2013-02-18 00:25:00,40.3,31.3,-100.00,SE,135,7.0,15.0,70,0.00,,,0.00,meteohub,2013-02-18 06:25:00,
2013-02-18 00:30:00,39.9,31.3,-100.00,ESE,113,6.0,14.0,71,0.00,,,0.00,meteohub,2013-02-18 06:30:00,
2013-02-18 00:32:00,39.7,31.1,-100.00,ESE,115,10.0,14.0,71,0.00,,,0.00,meteohub,2013-02-18 06:32:00,
2013-02-18 00:37:00,39.6,30.9,-100.00,ESE,117,3.0,14.0,71,0.00,,,0.00,meteohub,2013-02-18 06:37:00,
2013-02-18 00:42:00,39.6,31.3,-100.00,ESE,118,4.0,13.0,72,0.00,,,0.00,meteohub,2013-02-18 06:42:00,
2013-02-18 00:47:00,39.6,31.3,-100.00,ESE,111,2.0,12.0,72,0.00,,,0.00,meteohub,2013-02-18 06:47:00,
2013-02-18 00:52:00,39.6,31.3,-100.00,NE,40,0.0,11.0,72,0.00,,,0.00,meteohub,2013-02-18 06:52:00,
2013-02-18 00:57:00,39.6,31.3,-100.00,ESE,121,3.0,14.0,72,0.00,,,0.00,meteohub,2013-02-18 06:57:00,
2013-02-18 01:02:00,39.7,31.5,-100.00,SE,132,9.0,14.0,72,0.00,,,0.00,meteohub,2013-02-18 07:02:00,
2013-02-18 01:07:00,39.9,31.6,-100.00,SSE,155,6.0,11.0,72,0.00,,,0.00,meteohub,2013-02-18 07:07:00,
2013-02-18 01:12:00,40.5,31.8,-100.00,ESE,107,8.0,11.0,71,0.00,,,0.00,meteohub,2013-02-18 07:12:00,
2013-02-18 01:17:00,40.8,32.2,-100.00,East,99,4.0,12.0,71,0.00,,,0.00,meteohub,2013-02-18 07:17:00,
2013-02-18 01:22:00,40.8,32.2,-100.00,SE,127,4.0,12.0,71,0.00,,,0.00,meteohub,2013-02-18 07:22:00,
2013-02-18 01:27:00,40.8,32.2,-100.00,ESE,118,4.0,12.0,71,0.00,,,0.00,meteohub,2013-02-18 07:27:00,
2013-02-18 01:31:00,40.6,32.0,-100.00,SE,133,9.0,11.0,71,0.00,,,0.00,meteohub,2013-02-18 07:31:00,
2013-02-18 01:36:00,40.6,32.0,-100.00,ESE,102,4.0,11.0,71,0.00,,,0.00,meteohub,2013-02-18 07:36:00,
2013-02-18 01:41:00,40.5,31.8,-100.00,East,82,4.0,9.0,71,0.00,,,0.00,meteohub,2013-02-18 07:41:00,
2013-02-18 01:46:00,40.3,32.0,-100.00,SE,136,7.0,11.0,72,0.00,,,0.00,meteohub,2013-02-18 07:46:00,
2013-02-18 01:51:00,39.9,31.6,-100.00,East,98,6.0,11.0,72,0.00,,,0.00,meteohub,2013-02-18 07:51:00,
2013-02-18 01:56:00,39.9,31.6,-100.00,ESE,103,0.0,11.0,72,0.00,,,0.00,meteohub,2013-02-18 07:56:00,
2013-02-18 02:01:00,39.7,31.8,-100.00,ESE,105,5.0,10.0,73,0.00,,,0.00,meteohub,2013-02-18 08:01:00,
2013-02-18 02:06:00,39.7,31.8,-100.00,ESE,105,2.0,10.0,73,0.00,,,0.00,meteohub,2013-02-18 08:06:00,
2013-02-18 02:11:00,39.6,31.6,-100.00,ESE,118,3.0,10.0,73,0.00,,,0.00,meteohub,2013-02-18 08:11:00,
2013-02-18 02:16:00,39.6,32.0,-100.00,SE,125,5.0,10.0,74,0.00,,,0.00,meteohub,2013-02-18 08:16:00,
2013-02-18 02:22:00,39.7,31.8,-100.00,East,96,4.0,10.0,73,0.00,,,0.00,meteohub,2013-02-18 08:22:00,
2013-02-18 02:26:00,39.7,31.8,-100.00,ESE,123,2.0,10.0,73,0.00,,,0.00,meteohub,2013-02-18 08:26:00,
2013-02-18 02:31:00,39.7,31.8,-100.00,SE,141,7.0,10.0,73,0.00,,,0.00,meteohub,2013-02-18 08:31:00,
2013-02-18 02:36:00,39.7,31.8,-100.00,East,85,4.0,9.0,73,0.00,,,0.00,meteohub,2013-02-18 08:36:00,
2013-02-18 02:41:00,39.7,31.8,-100.00,ESE,121,3.0,10.0,73,0.00,,,0.00,meteohub,2013-02-18 08:41:00,
2013-02-18 02:47:00,39.7,31.8,-100.00,East,99,5.0,10.0,73,0.00,,,0.00,meteohub,2013-02-18 08:47:00,
2013-02-18 02:52:00,39.7,32.2,-100.00,ESE,114,5.0,10.0,74,0.00,,,0.00,meteohub,2013-02-18 08:52:00,
2013-02-18 02:57:00,39.9,32.4,-100.00,East,89,2.0,10.0,74,0.00,,,0.00,meteohub,2013-02-18 08:57:00,
2013-02-18 03:02:00,39.9,32.4,-100.00,SE,138,5.0,10.0,74,0.00,,,0.00,meteohub,2013-02-18 09:02:00,
2013-02-18 03:07:00,40.3,32.4,-100.00,SE,129,5.0,9.0,73,0.00,,,0.00,meteohub,2013-02-18 09:07:00,
2013-02-18 03:12:00,40.3,32.4,-100.00,SE,125,2.0,9.0,73,0.00,,,0.00,meteohub,2013-02-18 09:12:00,
2013-02-18 03:17:00,40.3,32.4,-100.00,ESE,109,2.0,10.0,73,0.00,,,0.00,meteohub,2013-02-18 09:17:00,
2013-02-18 03:22:00,40.3,32.7,-100.00,ESE,114,10.0,10.0,74,0.00,,,0.00,meteohub,2013-02-18 09:22:00,
2013-02-18 03:27:00,40.5,32.5,-100.00,ESE,114,4.0,10.0,73,0.00,,,0.00,meteohub,2013-02-18 09:27:00,
2013-02-18 03:32:00,40.3,32.4,-100.00,ESE,117,4.0,10.0,73,0.00,,,0.00,meteohub,2013-02-18 09:32:00,
2013-02-18 03:37:00,40.3,32.7,-100.00,ESE,115,4.0,11.0,74,0.00,,,0.00,meteohub,2013-02-18 09:37:00,
2013-02-18 03:42:00,40.1,32.5,-100.00,East,100,10.0,12.0,74,0.00,,,0.00,meteohub,2013-02-18 09:42:00,
2013-02-18 03:47:00,39.9,32.4,-100.00,ESE,114,5.0,12.0,74,0.00,,,0.00,meteohub,2013-02-18 09:47:00,
2013-02-18 03:52:00,39.9,32.4,-100.00,ESE,108,5.0,12.0,74,0.00,,,0.00,meteohub,2013-02-18 09:52:00,
2013-02-18 03:57:00,40.1,32.5,-100.00,SE,138,6.0,11.0,74,0.00,,,0.00,meteohub,2013-02-18 09:57:00,
2013-02-18 04:02:00,40.1,32.5,-100.00,SE,129,4.0,10.0,74,0.00,,,0.00,meteohub,2013-02-18 10:02:00,
2013-02-18 04:07:00,40.3,32.7,-100.00,SE,128,10.0,10.0,74,0.00,,,0.00,meteohub,2013-02-18 10:07:00,
2013-02-18 04:12:00,40.5,32.9,-100.00,ESE,106,5.0,10.0,74,0.00,,,0.00,meteohub,2013-02-18 10:12:00,
2013-02-18 04:17:00,40.6,32.7,-100.00,ESE,106,6.0,11.0,73,0.00,,,0.00,meteohub,2013-02-18 10:17:00,
2013-02-18 04:22:00,40.8,32.9,-100.00,ESE,117,3.0,11.0,73,0.00,,,0.00,meteohub,2013-02-18 10:22:00,
2013-02-18 04:27:00,41.2,33.3,-100.00,ESE,123,6.0,11.0,73,0.00,,,0.00,meteohub,2013-02-18 10:27:00,
2013-02-18 04:32:00,41.4,33.1,-100.00,SE,128,6.0,11.0,72,0.00,,,0.00,meteohub,2013-02-18 10:32:00,
2013-02-18 04:37:00,41.4,33.1,-100.00,East,96,0.0,11.0,72,0.00,,,0.00,meteohub,2013-02-18 10:37:00,
2013-02-18 04:42:00,41.5,33.3,-100.00,ESE,112,4.0,10.0,72,0.00,,,0.00,meteohub,2013-02-18 10:42:00,
2013-02-18 04:47:00,41.7,33.4,-100.00,ESE,102,5.0,11.0,72,0.00,,,0.00,meteohub,2013-02-18 10:47:00,
2013-02-18 04:52:00,41.7,33.4,-100.00,East,89,6.0,11.0,72,0.00,,,0.00,meteohub,2013-02-18 10:52:00,
2013-02-18 04:57:00,41.9,33.6,-100.00,East,100,6.0,11.0,72,0.00,,,0.00,meteohub,2013-02-18 10:57:00,
2013-02-18 05:02:00,41.9,33.6,-100.00,East,96,6.0,11.0,72,0.00,,,0.00,meteohub,2013-02-18 11:02:00,
2013-02-18 05:07:00,42.1,33.8,-100.00,ESE,106,4.0,11.0,72,0.00,,,0.00,meteohub,2013-02-18 11:07:00,
2013-02-18 05:12:00,42.1,33.8,-100.00,East,99,4.0,11.0,72,0.00,,,0.00,meteohub,2013-02-18 11:12:00,
2013-02-18 05:17:00,42.1,33.4,-100.00,ESE,115,3.0,11.0,71,0.00,,,0.00,meteohub,2013-02-18 11:17:00,
2013-02-18 05:22:00,42.1,33.4,-100.00,ESE,105,7.0,11.0,71,0.00,,,0.00,meteohub,2013-02-18 11:22:00,
2013-02-18 05:27:00,42.3,33.6,-100.00,East,101,7.0,12.0,71,0.00,,,0.00,meteohub,2013-02-18 11:27:00,
2013-02-18 05:32:00,42.4,33.6,-100.00,ESE,108,7.0,12.0,71,0.00,,,0.00,meteohub,2013-02-18 11:32:00,
2013-02-18 05:37:00,42.4,33.6,-100.00,ESE,105,9.0,12.0,71,0.00,,,0.00,meteohub,2013-02-18 11:37:00,
2013-02-18 05:42:00,42.6,33.8,-100.00,ESE,103,5.0,11.0,71,0.00,,,0.00,meteohub,2013-02-18 11:42:00,
2013-02-18 05:47:00,43.0,34.2,-100.00,SSE,159,5.0,11.0,71,0.00,,,0.00,meteohub,2013-02-18 11:47:00,
2013-02-18 05:52:00,43.2,34.0,-100.00,SSE,153,11.0,11.0,70,0.00,,,0.00,meteohub,2013-02-18 11:52:00,
2013-02-18 05:57:00,43.3,34.2,-100.00,SE,137,2.0,11.0,70,0.00,,,0.00,meteohub,2013-02-18 11:57:00,
2013-02-18 06:02:00,43.3,34.2,-100.00,ESE,103,0.0,11.0,70,0.00,,,0.00,meteohub,2013-02-18 12:02:00,
2013-02-18 06:07:00,43.3,34.2,-100.00,SE,132,2.0,11.0,70,0.00,,,0.00,meteohub,2013-02-18 12:07:00,
2013-02-18 06:12:00,43.3,34.2,-100.00,East,84,6.0,11.0,70,0.00,,,0.00,meteohub,2013-02-18 12:12:00,
2013-02-18 06:17:00,43.3,34.2,-100.00,SE,126,3.0,9.0,70,0.00,,,0.00,meteohub,2013-02-18 12:17:00,
2013-02-18 06:22:00,43.5,34.3,-100.00,SE,140,4.0,9.0,70,0.00,,,0.00,meteohub,2013-02-18 12:22:00,
2013-02-18 06:27:00,43.5,34.3,-100.00,SE,132,4.0,10.0,70,0.00,,,0.00,meteohub,2013-02-18 12:27:00,
2013-02-18 06:32:00,43.5,34.3,-100.00,SE,142,4.0,10.0,70,0.00,,,0.00,meteohub,2013-02-18 12:32:00,
2013-02-18 06:37:00,43.7,34.5,-100.00,East,90,4.0,12.0,70,0.00,,,0.00,meteohub,2013-02-18 12:37:00,
2013-02-18 06:42:00,43.9,34.7,-100.00,ESE,109,7.0,12.0,70,0.00,,,0.00,meteohub,2013-02-18 12:42:00,
2013-02-18 06:47:00,43.9,34.7,-100.00,ESE,115,5.0,12.0,70,0.00,,,0.00,meteohub,2013-02-18 12:47:00,
2013-02-18 06:52:00,43.9,34.7,-100.00,SE,134,5.0,11.0,70,0.00,,,0.00,meteohub,2013-02-18 12:52:00,
2013-02-18 06:57:00,44.1,34.9,-100.00,East,100,6.0,10.0,70,0.00,,,0.00,meteohub,2013-02-18 12:57:00,
2013-02-18 07:02:00,43.9,34.7,-100.00,East,87,5.0,10.0,70,0.00,,,0.00,meteohub,2013-02-18 13:02:00,
2013-02-18 07:07:00,43.9,34.7,-100.00,ESE,102,5.0,9.0,70,0.00,,,0.00,meteohub,2013-02-18 13:07:00,
2013-02-18 07:12:00,43.7,34.9,-100.00,ESE,121,5.0,9.0,71,0.00,,,0.00,meteohub,2013-02-18 13:12:00,
2013-02-18 07:17:00,44.1,34.9,-100.00,SE,125,6.0,10.0,70,0.00,,,0.00,meteohub,2013-02-18 13:17:00,
2013-02-18 07:22:00,44.2,35.1,-100.00,East,101,2.0,10.0,70,0.00,,,0.00,meteohub,2013-02-18 13:22:00,
2013-02-18 07:27:00,44.2,35.1,-100.00,ESE,103,4.0,11.0,70,0.00,,,0.00,meteohub,2013-02-18 13:27:00,
2013-02-18 07:32:00,44.2,35.1,-100.00,ESE,119,2.0,11.0,70,0.00,,,0.00,meteohub,2013-02-18 13:32:00,
2013-02-18 07:37:00,44.2,35.1,-100.00,ESE,122,6.0,11.0,70,0.00,,,0.00,meteohub,2013-02-18 13:37:00,
2013-02-18 07:42:00,44.6,35.4,-100.00,SE,130,5.0,10.0,70,0.00,,,0.00,meteohub,2013-02-18 13:42:00,
2013-02-18 07:47:00,45.0,35.8,-100.00,East,99,5.0,11.0,70,0.00,,,0.00,meteohub,2013-02-18 13:47:00,
2013-02-18 07:52:00,45.3,35.8,-100.00,SE,132,6.0,14.0,69,0.00,,,0.00,meteohub,2013-02-18 13:52:00,
2013-02-18 07:57:00,46.0,36.5,-100.00,ESE,122,7.0,14.0,69,0.00,,,0.00,meteohub,2013-02-18 13:57:00,
2013-02-18 08:02:00,46.8,36.7,-100.00,East,94,3.0,14.0,68,0.00,,,0.00,meteohub,2013-02-18 14:02:00,
2013-02-18 08:07:00,47.7,37.2,-100.00,SE,135,10.0,12.0,67,0.00,,,0.00,meteohub,2013-02-18 14:07:00,
2013-02-18 08:12:00,48.7,37.9,-100.00,ESE,106,5.0,17.0,66,0.00,,,0.00,meteohub,2013-02-18 14:12:00,
2013-02-18 08:17:00,49.5,38.1,-100.00,ESE,108,9.0,17.0,65,0.00,,,0.00,meteohub,2013-02-18 14:17:00,
2013-02-18 08:22:00,49.8,38.1,-100.00,South,183,7.0,17.0,64,0.00,,,0.00,meteohub,2013-02-18 14:22:00,
2013-02-18 08:27:00,50.4,38.3,-100.00,East,82,4.0,14.0,63,0.00,,,0.00,meteohub,2013-02-18 14:27:00,
2013-02-18 08:32:00,50.5,38.5,-100.00,ESE,113,11.0,13.0,63,0.00,,,0.00,meteohub,2013-02-18 14:32:00,
2013-02-18 08:37:00,50.9,38.3,-100.00,SSE,155,2.0,21.0,62,0.00,,,0.00,meteohub,2013-02-18 14:37:00,
2013-02-18 08:42:00,51.3,38.7,-100.00,SE,134,9.0,21.0,62,0.00,,,0.00,meteohub,2013-02-18 14:42:00,
2013-02-18 08:47:00,51.4,38.8,-100.00,East,82,2.0,19.0,62,0.00,,,0.00,meteohub,2013-02-18 14:47:00,
2013-02-18 08:52:00,51.4,38.8,-100.00,East,92,5.0,19.0,62,0.00,,,0.00,meteohub,2013-02-18 14:52:00,
2013-02-18 08:57:00,51.6,39.0,-100.00,SSW,200,10.0,19.0,62,0.00,,,0.00,meteohub,2013-02-18 14:57:00,
2013-02-18 09:02:00,51.4,39.2,-100.00,SSE,167,9.0,18.0,63,0.00,,,0.00,meteohub,2013-02-18 15:02:00,
2013-02-18 09:07:00,51.4,39.2,-100.00,South,184,7.0,19.0,63,0.00,,,0.00,meteohub,2013-02-18 15:07:00,
2013-02-18 09:12:00,51.3,39.0,-100.00,SSW,213,3.0,21.0,63,0.00,,,0.00,meteohub,2013-02-18 15:12:00,
2013-02-18 09:17:00,51.4,39.7,-100.00,SSW,206,11.0,25.0,64,0.00,,,0.00,meteohub,2013-02-18 15:17:00,
2013-02-18 09:22:00,51.3,39.6,-100.00,SW,234,14.0,25.0,64,0.00,,,0.00,meteohub,2013-02-18 15:22:00,
2013-02-18 09:27:00,51.4,40.1,-100.00,SSW,210,11.0,25.0,65,0.00,,,0.00,meteohub,2013-02-18 15:27:00,
2013-02-18 09:32:00,51.6,39.9,-100.00,South,183,11.0,23.0,64,0.00,,,0.00,meteohub,2013-02-18 15:32:00,
2013-02-18 09:37:00,52.3,40.5,-100.00,South,184,9.0,23.0,64,0.00,,,0.00,meteohub,2013-02-18 15:37:00,
2013-02-18 09:42:00,52.9,40.6,-100.00,SSW,198,9.0,23.0,63,0.00,,,0.00,meteohub,2013-02-18 15:42:00,
2013-02-18 09:47:00,53.4,41.2,-100.00,South,172,5.0,22.0,63,0.00,,,0.00,meteohub,2013-02-18 15:47:00,
2013-02-18 09:52:00,53.4,41.2,-100.00,SW,217,12.0,22.0,63,0.00,,,0.00,meteohub,2013-02-18 15:52:00,
2013-02-18 09:57:00,53.2,41.4,-100.00,SW,229,9.0,22.0,64,0.00,,,0.00,meteohub,2013-02-18 15:57:00,
2013-02-18 10:02:00,53.4,41.5,-100.00,SSW,211,3.0,23.0,64,0.00,,,0.00,meteohub,2013-02-18 16:02:00,
2013-02-18 10:07:00,54.1,42.3,-100.00,SSW,195,11.0,23.0,64,0.00,,,0.00,meteohub,2013-02-18 16:07:00,
2013-02-18 10:12:00,55.0,42.3,-100.00,SW,215,9.0,21.0,62,0.00,,,0.00,meteohub,2013-02-18 16:12:00,
2013-02-18 10:17:00,55.0,42.6,-100.00,SSW,209,6.0,26.0,63,0.00,,,0.00,meteohub,2013-02-18 16:17:00,
2013-02-18 10:22:00,55.0,42.6,-100.00,SSW,205,21.0,26.0,63,0.00,,,0.00,meteohub,2013-02-18 16:22:00,
2013-02-18 10:27:00,54.9,43.0,-100.00,SSW,213,9.0,26.0,64,0.00,,,0.00,meteohub,2013-02-18 16:27:00,
2013-02-18 10:32:00,55.0,43.2,-100.00,SW,217,13.0,25.0,64,0.00,,,0.00,meteohub,2013-02-18 16:32:00,
2013-02-18 10:37:00,55.4,43.0,-100.00,SSW,205,7.0,25.0,63,0.00,,,0.00,meteohub,2013-02-18 16:37:00,
2013-02-18 10:42:00,55.6,43.2,-100.00,SW,219,17.0,29.0,63,0.00,,,0.00,meteohub,2013-02-18 16:42:00,
2013-02-18 10:47:00,55.2,43.3,-100.00,SSW,193,22.0,29.0,64,0.00,,,0.00,meteohub,2013-02-18 16:47:00,
2013-02-18 10:53:00,55.2,43.3,-100.00,SW,217,12.0,29.0,64,0.00,,,0.00,meteohub,2013-02-18 16:53:00,
2013-02-18 10:58:00,55.2,43.3,-100.00,SW,219,15.0,27.0,64,0.00,,,0.00,meteohub,2013-02-18 16:58:00,
2013-02-18 11:03:00,55.2,43.7,-100.00,South,182,6.0,27.0,65,0.00,,,0.00,meteohub,2013-02-18 17:03:00,
2013-02-18 11:08:00,55.2,43.7,-100.00,SSW,205,15.0,27.0,65,0.00,,,0.00,meteohub,2013-02-18 17:08:00,
2013-02-18 11:13:00,55.2,43.7,-100.00,SSW,204,10.0,24.0,65,0.00,,,0.00,meteohub,2013-02-18 17:13:00,
2013-02-18 11:18:00,55.2,43.7,-100.00,SSW,203,18.0,24.0,65,0.00,,,0.00,meteohub,2013-02-18 17:18:00,
2013-02-18 11:23:00,55.0,43.5,-100.00,SSW,206,11.0,24.0,65,0.00,,,0.00,meteohub,2013-02-18 17:23:00,
2013-02-18 11:28:00,54.9,43.3,-100.00,SSW,203,3.0,24.0,65,0.00,,,0.00,meteohub,2013-02-18 17:28:00,
2013-02-18 11:33:00,54.7,43.5,-100.00,SW,214,12.0,25.0,66,0.00,,,0.00,meteohub,2013-02-18 17:33:00,
2013-02-18 11:38:00,54.7,43.5,-100.00,SSW,192,14.0,25.0,66,0.00,,,0.00,meteohub,2013-02-18 17:38:00,
2013-02-18 11:43:00,54.7,43.5,-100.00,SSW,207,10.0,25.0,66,0.00,,,0.00,meteohub,2013-02-18 17:43:00,
2013-02-18 11:48:00,54.5,43.7,-100.00,SW,223,6.0,23.0,67,0.00,,,0.00,meteohub,2013-02-18 17:48:00,
2013-02-18 11:53:00,54.5,43.7,-100.00,SW,234,12.0,23.0,67,0.00,,,0.00,meteohub,2013-02-18 17:53:00,
2013-02-18 11:58:00,54.3,43.5,-100.00,SSW,199,10.0,23.0,67,0.00,,,0.00,meteohub,2013-02-18 17:58:00,
2013-02-18 12:03:00,54.3,43.5,-100.00,SW,217,13.0,23.0,67,0.00,,,0.00,meteohub,2013-02-18 18:03:00,
2013-02-18 12:08:00,54.3,43.5,-100.00,SSW,213,5.0,23.0,67,0.00,,,0.00,meteohub,2013-02-18 18:08:00,
2013-02-18 12:13:00,54.5,43.7,-100.00,South,188,10.0,23.0,67,0.00,,,0.00,meteohub,2013-02-18 18:13:00,
2013-02-18 12:18:00,54.5,44.2,-100.00,SSE,151,3.0,22.0,68,0.00,,,0.00,meteohub,2013-02-18 18:18:00,
2013-02-18 12:23:00,54.7,44.2,-100.00,SSW,205,9.0,24.0,68,0.00,,,0.00,meteohub,2013-02-18 18:23:00,
2013-02-18 12:28:00,54.7,44.2,-100.00,South,176,6.0,24.0,68,0.00,,,0.00,meteohub,2013-02-18 18:28:00,
2013-02-18 12:32:00,54.9,44.4,-100.00,South,190,6.0,24.0,68,0.00,,,0.00,meteohub,2013-02-18 18:32:00,
2013-02-18 12:37:00,55.0,44.2,-100.00,SSW,210,16.0,20.0,67,0.00,,,0.00,meteohub,2013-02-18 18:37:00,
2013-02-18 12:42:00,55.2,44.4,-100.00,SW,226,12.0,20.0,67,0.00,,,0.00,meteohub,2013-02-18 18:42:00,
2013-02-18 12:47:00,55.2,44.4,-100.00,SSE,161,6.0,21.0,67,0.00,,,0.00,meteohub,2013-02-18 18:47:00,
2013-02-18 12:52:00,55.4,45.0,-100.00,SSE,161,11.0,21.0,68,0.00,,,0.00,meteohub,2013-02-18 18:52:00,
2013-02-18 12:57:00,55.6,45.1,-100.00,SE,143,10.0,21.0,68,0.00,,,0.00,meteohub,2013-02-18 18:57:00,
2013-02-18 13:02:00,55.6,45.1,-100.00,South,187,11.0,21.0,68,0.00,,,0.00,meteohub,2013-02-18 19:02:00,
2013-02-18 13:07:00,55.4,45.0,-100.00,SSW,211,10.0,19.0,68,0.00,,,0.00,meteohub,2013-02-18 19:07:00,
2013-02-18 13:12:00,55.4,45.0,-100.00,South,186,8.0,19.0,68,0.00,,,0.00,meteohub,2013-02-18 19:12:00,
2013-02-18 13:17:00,55.6,45.1,-100.00,SSE,149,3.0,21.0,68,0.00,,,0.00,meteohub,2013-02-18 19:17:00,
2013-02-18 13:22:00,55.2,45.1,-100.00,SSW,212,11.0,21.0,69,0.00,,,0.00,meteohub,2013-02-18 19:22:00,
2013-02-18 13:27:00,55.2,45.1,-100.00,South,180,3.0,21.0,69,0.00,,,0.00,meteohub,2013-02-18 19:27:00,
2013-02-18 13:32:00,55.2,45.7,-100.00,South,187,7.0,21.0,70,0.00,,,0.00,meteohub,2013-02-18 19:32:00,
2013-02-18 13:37:00,55.0,45.5,-100.00,East,98,7.0,21.0,70,0.00,,,0.00,meteohub,2013-02-18 19:37:00,
2013-02-18 13:42:00,54.9,45.7,-100.00,South,178,7.0,21.0,71,0.00,,,0.00,meteohub,2013-02-18 19:42:00,
2013-02-18 13:47:00,54.7,46.2,-100.00,SSE,147,5.0,19.0,73,0.00,,,0.00,meteohub,2013-02-18 19:47:00,
2013-02-18 13:52:00,54.1,46.4,-100.00,SSW,194,14.0,19.0,75,0.00,,,0.00,meteohub,2013-02-18 19:52:00,
2013-02-18 13:57:00,53.8,46.8,-100.00,South,184,6.0,19.0,77,0.00,,,0.00,meteohub,2013-02-18 19:57:00,
2013-02-18 14:02:00,53.6,46.9,-100.00,SSE,167,5.0,19.0,78,0.00,,,0.00,meteohub,2013-02-18 20:02:00,
2013-02-18 14:07:00,53.4,46.8,-100.00,SE,140,4.0,18.0,78,0.00,,,0.00,meteohub,2013-02-18 20:07:00,
2013-02-18 14:12:00,53.8,46.8,-100.00,SE,139,3.0,15.0,77,0.00,,,0.00,meteohub,2013-02-18 20:12:00,
2013-02-18 14:17:00,54.0,46.9,-100.00,SE,146,6.0,15.0,77,0.00,,,0.00,meteohub,2013-02-18 20:17:00,
2013-02-18 14:22:00,54.1,46.8,-100.00,SSE,159,4.0,15.0,76,0.00,,,0.00,meteohub,2013-02-18 20:22:00,
2013-02-18 14:27:00,54.1,46.8,-100.00,SSE,150,7.0,19.0,76,0.00,,,0.00,meteohub,2013-02-18 20:27:00,
2013-02-18 14:32:00,54.5,47.1,-100.00,SE,143,13.0,19.0,76,0.00,,,0.00,meteohub,2013-02-18 20:32:00,
2013-02-18 14:37:00,54.9,47.1,-100.00,ENE,67,6.0,17.0,75,0.00,,,0.00,meteohub,2013-02-18 20:37:00,
2013-02-18 14:42:00,54.7,46.9,-100.00,East,82,3.0,16.0,75,0.00,,,0.00,meteohub,2013-02-18 20:42:00,
2013-02-18 14:47:00,54.5,46.8,-100.00,ENE,71,5.0,16.0,75,0.00,,,0.00,meteohub,2013-02-18 20:47:00,
2013-02-18 14:52:00,54.3,46.9,-100.00,ESE,109,4.0,16.0,76,0.00,,,0.00,meteohub,2013-02-18 20:52:00,
2013-02-18 14:57:00,54.1,46.8,-100.00,ESE,111,6.0,16.0,76,0.00,,,0.00,meteohub,2013-02-18 20:57:00,
2013-02-18 15:02:00,54.1,46.8,-100.00,SSE,165,0.0,15.0,76,0.00,,,0.00,meteohub,2013-02-18 21:02:00,
2013-02-18 15:07:00,54.1,47.1,-100.00,ENE,78,6.0,14.0,77,0.00,,,0.00,meteohub,2013-02-18 21:07:00,
2013-02-18 15:12:00,54.1,47.1,-100.00,SSW,211,14.0,16.0,77,0.00,,,0.00,meteohub,2013-02-18 21:12:00,
2013-02-18 15:17:00,54.1,47.1,-100.00,East,97,9.0,19.0,77,0.00,,,0.00,meteohub,2013-02-18 21:17:00,
2013-02-18 15:22:00,54.0,46.9,-100.00,ESE,106,15.0,19.0,77,0.00,,,0.00,meteohub,2013-02-18 21:22:00,
2013-02-18 15:27:00,53.4,47.1,-100.00,South,169,4.0,20.0,79,0.00,,,0.00,meteohub,2013-02-18 21:27:00,
2013-02-18 15:32:00,52.9,47.5,-100.00,SE,145,9.0,20.0,82,0.00,,,0.00,meteohub,2013-02-18 21:32:00,
2013-02-18 15:37:00,52.2,47.5,-100.00,NE,54,9.0,20.0,84,0.01,,,0.01,meteohub,2013-02-18 21:37:00,
2013-02-18 15:42:00,51.6,47.3,-100.00,SE,133,10.0,20.0,85,0.01,,,0.01,meteohub,2013-02-18 21:42:00,
2013-02-18 15:47:00,51.6,47.5,-100.00,SSE,148,1.0,16.0,86,0.01,,,0.01,meteohub,2013-02-18 21:47:00,
2013-02-18 15:52:00,51.4,47.5,-100.00,SSE,155,4.0,15.0,86,0.01,,,0.01,meteohub,2013-02-18 21:52:00,
2013-02-18 15:57:00,51.3,47.5,-100.00,SSW,203,7.0,18.0,87,0.02,,,0.02,meteohub,2013-02-18 21:57:00,
2013-02-18 16:02:00,50.9,47.1,-100.00,NE,34,23.0,23.0,87,0.03,,,0.03,meteohub,2013-02-18 22:02:00,
2013-02-18 16:07:00,44.8,39.4,-100.00,NNW,332,15.0,28.0,81,0.06,,,0.06,meteohub,2013-02-18 22:07:00,
2013-02-18 16:12:00,41.7,37.6,-100.00,NW,320,19.0,28.0,85,0.13,,,0.13,meteohub,2013-02-18 22:12:00,
2013-02-18 16:17:00,40.5,36.9,-100.00,WNW,300,20.0,28.0,87,0.15,,,0.15,meteohub,2013-02-18 22:17:00,
2013-02-18 16:22:00,39.9,36.9,-100.00,WNW,292,15.0,33.0,89,0.17,,,0.17,meteohub,2013-02-18 22:22:00,
2013-02-18 16:27:00,39.7,36.7,-100.00,NW,309,9.0,33.0,89,0.20,,,0.20,meteohub,2013-02-18 22:27:00,
2013-02-18 16:32:00,39.6,36.9,-100.00,NW,311,15.0,30.0,90,0.21,,,0.21,meteohub,2013-02-18 22:32:00,
2013-02-18 16:37:00,39.4,36.7,-100.00,WNW,300,13.0,30.0,90,0.22,,,0.23,meteohub,2013-02-18 22:37:00,
2013-02-18 16:42:00,39.0,36.3,-100.00,NW,311,7.0,25.0,90,0.24,,,0.25,meteohub,2013-02-18 22:42:00,
2013-02-18 16:47:00,38.8,36.5,-100.00,WNW,302,13.0,25.0,91,0.26,,,0.27,meteohub,2013-02-18 22:47:00,
2013-02-18 16:52:00,38.3,35.6,-100.00,NW,306,18.0,25.0,90,0.28,,,0.29,meteohub,2013-02-18 22:52:00,
2013-02-18 16:57:00,37.2,34.5,-100.00,NW,304,24.0,25.0,90,0.32,,,0.34,meteohub,2013-02-18 22:57:00,
2013-02-18 17:02:00,35.8,32.9,-100.00,NW,311,12.0,28.0,89,0.31,,,0.35,meteohub,2013-02-18 23:02:00,
2013-02-18 17:07:00,35.1,32.4,-100.00,WNW,296,11.0,31.0,90,0.27,,,0.36,meteohub,2013-02-18 23:07:00,
2013-02-18 17:12:00,34.3,31.6,-100.00,WNW,302,6.0,31.0,90,0.24,,,0.37,meteohub,2013-02-18 23:12:00,
2013-02-18 17:17:00,34.0,31.3,-100.00,NW,311,16.0,19.0,90,0.21,,,0.37,meteohub,2013-02-18 23:17:00,
2013-02-18 17:22:00,33.6,31.3,-100.00,NW,304,5.0,19.0,91,0.19,,,0.37,meteohub,2013-02-18 23:22:00,
2013-02-18 17:28:00,33.6,31.3,-100.00,WNW,301,5.0,19.0,91,0.17,,,0.37,meteohub,2013-02-18 23:28:00,
2013-02-18 17:33:00,33.6,31.3,-100.00,NW,315,12.0,19.0,91,0.15,,,0.37,meteohub,2013-02-18 23:33:00,
2013-02-18 17:38:00,33.6,31.3,-100.00,NW,319,17.0,17.0,91,0.13,,,0.37,meteohub,2013-02-18 23:38:00,
2013-02-18 17:43:00,33.6,31.3,-100.00,WSW,257,7.0,17.0,91,0.11,,,0.37,meteohub,2013-02-18 23:43:00,
2013-02-18 17:48:00,33.6,31.3,-100.00,NW,322,11.0,18.0,91,0.10,,,0.37,meteohub,2013-02-18 23:48:00,
2013-02-18 17:53:00,33.6,31.5,-100.00,NW,319,9.0,18.0,92,0.08,,,0.38,meteohub,2013-02-18 23:53:00,
2013-02-18 17:58:00,33.8,31.6,-100.00,WNW,302,6.0,18.0,92,0.04,,,0.38,meteohub,2013-02-18 23:58:00,
2013-02-18 18:03:00,34.0,31.8,-100.00,WNW,292,5.0,15.0,92,0.02,,,0.38,meteohub,2013-02-19 00:03:00,
2013-02-18 18:08:00,34.2,32.0,-100.00,WNW,284,5.0,13.0,92,0.01,,,0.00,meteohub,2013-02-19 00:08:00,
2013-02-18 18:13:00,34.2,32.0,-100.00,WNW,296,7.0,13.0,92,0.02,,,0.00,meteohub,2013-02-19 00:13:00,
2013-02-18 18:18:00,34.3,32.2,-100.00,WNW,300,12.0,13.0,92,0.02,,,0.01,meteohub,2013-02-19 00:18:00,
2013-02-18 18:23:00,34.3,32.2,-100.00,West,281,7.0,18.0,92,0.02,,,0.01,meteohub,2013-02-19 00:23:00,
2013-02-18 18:28:00,34.3,32.2,-100.00,WNW,300,2.0,18.0,92,0.02,,,0.01,meteohub,2013-02-19 00:28:00,
2013-02-18 18:33:00,34.3,32.2,-100.00,NW,304,6.0,21.0,92,0.02,,,0.01,meteohub,2013-02-19 00:33:00,
2013-02-18 18:38:00,34.3,32.2,-100.00,WNW,299,9.0,21.0,92,0.02,,,0.01,meteohub,2013-02-19 00:38:00,
2013-02-18 18:43:00,34.3,32.2,-100.00,WNW,284,3.0,21.0,92,0.02,,,0.01,meteohub,2013-02-19 00:43:00,
2013-02-18 18:48:00,34.3,32.2,-100.00,WNW,287,4.0,18.0,92,0.02,,,0.01,meteohub,2013-02-19 00:48:00,
2013-02-18 18:53:00,34.0,31.8,-100.00,West,266,9.0,21.0,92,0.01,,,0.01,meteohub,2013-02-19 00:53:00,
2013-02-18 18:58:00,33.6,31.5,-100.00,NW,309,20.0,29.0,92,0.01,,,0.01,meteohub,2013-02-19 00:58:00,
2013-02-18 19:03:00,33.3,31.1,-100.00,WNW,303,14.0,29.0,92,0.01,,,0.01,meteohub,2013-02-19 01:03:00,
2013-02-18 19:08:00,33.3,31.1,-100.00,NW,304,12.0,29.0,92,0.01,,,0.01,meteohub,2013-02-19 01:08:00,
2013-02-18 19:13:00,33.3,30.9,-100.00,West,263,3.0,26.0,91,0.00,,,0.01,meteohub,2013-02-19 01:13:00,
2013-02-18 19:18:00,33.1,30.7,-100.00,NW,307,18.0,26.0,91,0.00,,,0.01,meteohub,2013-02-19 01:18:00,
2013-02-18 19:23:00,32.9,30.4,-100.00,WNW,282,19.0,26.0,90,0.00,,,0.01,meteohub,2013-02-19 01:23:00,
2013-02-18 19:28:00,32.9,30.4,-100.00,NNW,335,10.0,26.0,90,0.00,,,0.01,meteohub,2013-02-19 01:28:00,
2013-02-18 19:33:00,32.7,29.8,-100.00,WNW,296,14.0,24.0,89,0.00,,,0.01,meteohub,2013-02-19 01:33:00,
2013-02-18 19:38:00,32.7,29.8,-100.00,NW,311,21.0,26.0,89,0.00,,,0.01,meteohub,2013-02-19 01:38:00,
2013-02-18 19:43:00,32.5,29.3,-100.00,West,263,23.0,26.0,88,0.00,,,0.01,meteohub,2013-02-19 01:43:00,
2013-02-18 19:48:00,32.4,28.9,-100.00,WSW,242,9.0,28.0,87,0.00,,,0.01,meteohub,2013-02-19 01:48:00,
2013-02-18 19:53:00,32.2,28.8,-100.00,WNW,295,11.0,30.0,87,0.00,,,0.01,meteohub,2013-02-19 01:53:00,
2013-02-18 19:58:00,32.0,28.2,-100.00,WNW,292,16.0,30.0,86,0.00,,,0.01,meteohub,2013-02-19 01:58:00,
2013-02-18 20:03:00,32.0,28.2,-100.00,WSW,237,11.0,30.0,86,0.01,,,0.02,meteohub,2013-02-19 02:03:00,
2013-02-18 20:08:00,31.8,27.5,-100.00,NW,307,16.0,28.0,84,0.01,,,0.02,meteohub,2013-02-19 02:08:00,
2013-02-18 20:13:00,31.6,27.1,-100.00,WNW,291,5.0,28.0,83,0.01,,,0.02,meteohub,2013-02-19 02:13:00,
2013-02-18 20:18:00,31.5,26.2,-100.00,WNW,295,9.0,31.0,81,0.01,,,0.02,meteohub,2013-02-19 02:18:00,
2013-02-18 20:23:00,31.5,26.2,-100.00,NNW,328,15.0,31.0,81,0.01,,,0.02,meteohub,2013-02-19 02:23:00,
2013-02-18 20:28:00,31.3,25.5,-100.00,NW,309,16.0,31.0,79,0.01,,,0.02,meteohub,2013-02-19 02:28:00,
2013-02-18 20:33:00,31.3,25.5,-100.00,NW,307,18.0,26.0,79,0.01,,,0.02,meteohub,2013-02-19 02:33:00,
2013-02-18 20:39:00,31.3,25.2,-100.00,WNW,286,20.0,28.0,78,0.01,,,0.02,meteohub,2013-02-19 02:39:00,
2013-02-18 20:44:00,31.3,25.2,-100.00,West,277,11.0,28.0,78,0.01,,,0.02,meteohub,2013-02-19 02:44:00,
2013-02-18 20:49:00,30.9,24.6,-100.00,WNW,295,13.0,28.0,77,0.01,,,0.02,meteohub,2013-02-19 02:49:00,
2013-02-18 20:54:00,30.9,23.9,-100.00,WNW,300,8.0,31.0,75,0.01,,,0.02,meteohub,2013-02-19 02:54:00,
2013-02-18 20:59:00,30.7,24.4,-100.00,WSW,248,16.0,31.0,77,0.00,,,0.02,meteohub,2013-02-19 02:59:00,
2013-02-18 21:04:00,30.6,23.9,-100.00,West,281,15.0,27.0,76,0.00,,,0.02,meteohub,2013-02-19 03:04:00,
2013-02-18 21:09:00,30.4,23.4,-100.00,WNW,296,24.0,31.0,75,0.00,,,0.02,meteohub,2013-02-19 03:09:00,
2013-02-18 21:14:00,30.4,23.2,-100.00,NW,309,14.0,31.0,74,0.00,,,0.02,meteohub,2013-02-19 03:14:00,
2013-02-18 21:19:00,30.0,22.5,-100.00,WNW,291,10.0,31.0,73,0.00,,,0.02,meteohub,2013-02-19 03:19:00,
2013-02-18 21:24:00,30.0,22.5,-100.00,West,275,15.0,31.0,73,0.00,,,0.02,meteohub,2013-02-19 03:24:00,
2013-02-18 21:29:00,29.8,22.3,-100.00,West,281,15.0,31.0,73,0.00,,,0.02,meteohub,2013-02-19 03:29:00,
2013-02-18 21:34:00,29.8,22.6,-100.00,NW,309,9.0,31.0,74,0.00,,,0.02,meteohub,2013-02-19 03:34:00,
2013-02-18 21:39:00,29.8,22.8,-100.00,WNW,300,5.0,22.0,75,0.00,,,0.02,meteohub,2013-02-19 03:39:00,
2013-02-18 21:44:00,29.8,22.8,-100.00,West,281,13.0,25.0,75,0.00,,,0.02,meteohub,2013-02-19 03:44:00,
2013-02-18 21:49:00,30.0,23.0,-100.00,WNW,288,12.0,25.0,75,0.00,,,0.02,meteohub,2013-02-19 03:49:00,
2013-02-18 21:54:00,29.8,22.6,-100.00,WSW,256,17.0,25.0,74,0.00,,,0.02,meteohub,2013-02-19 03:54:00,
2013-02-18 21:59:00,29.7,21.4,-100.00,West,270,17.0,24.0,71,0.00,,,0.02,meteohub,2013-02-19 03:59:00,
2013-02-18 22:04:00,29.5,20.8,-100.00,West,262,20.0,27.0,70,0.00,,,0.02,meteohub,2013-02-19 04:04:00,
2013-02-18 22:09:00,29.5,21.2,-100.00,West,275,3.0,28.0,71,0.00,,,0.02,meteohub,2013-02-19 04:09:00,
2013-02-18 22:14:00,29.1,20.8,-100.00,West,265,17.0,32.0,71,0.00,,,0.02,meteohub,2013-02-19 04:14:00,
2013-02-18 22:19:00,29.1,20.8,-100.00,WNW,284,13.0,32.0,71,0.00,,,0.02,meteohub,2013-02-19 04:19:00,
2013-02-18 22:24:00,29.1,20.8,-100.00,WNW,300,9.0,32.0,71,0.00,,,0.02,meteohub,2013-02-19 04:24:00,
2013-02-18 22:29:00,29.1,21.2,-100.00,NW,308,11.0,26.0,72,0.00,,,0.02,meteohub,2013-02-19 04:29:00,
2013-02-18 22:34:00,28.9,20.7,-100.00,WNW,291,10.0,26.0,71,0.00,,,0.02,meteohub,2013-02-19 04:34:00,
2013-02-18 22:39:00,28.8,19.9,-100.00,WNW,292,11.0,23.0,69,0.00,,,0.02,meteohub,2013-02-19 04:39:00,
2013-02-18 22:44:00,28.2,19.0,-100.00,West,274,10.0,25.0,68,0.00,,,0.02,meteohub,2013-02-19 04:44:00,
2013-02-18 22:49:00,28.0,19.2,-100.00,West,269,12.0,25.0,69,0.00,,,0.02,meteohub,2013-02-19 04:49:00,
2013-02-18 22:54:00,27.9,19.4,-100.00,WSW,253,6.0,27.0,70,0.00,,,0.02,meteohub,2013-02-19 04:54:00,
2013-02-18 22:59:00,27.9,19.4,-100.00,WSW,256,6.0,27.0,70,0.00,,,0.02,meteohub,2013-02-19 04:59:00,
2013-02-18 23:00:00,27.9,19.4,-100.00,WSW,257,15.0,27.0,70,0.00,,,0.02,meteohub,2013-02-19 05:00:00,
2013-02-18 23:05:00,27.9,19.8,-100.00,WSW,252,7.0,27.0,71,0.00,,,0.02,meteohub,2013-02-19 05:05:00,
2013-02-18 23:10:00,27.9,19.8,-100.00,WNW,288,12.0,24.0,71,0.00,,,0.02,meteohub,2013-02-19 05:10:00,
2013-02-18 23:15:00,27.9,19.8,-100.00,West,266,11.0,29.0,71,0.00,,,0.02,meteohub,2013-02-19 05:15:00,
2013-02-18 23:20:00,27.5,19.0,-100.00,WNW,303,20.0,29.0,70,0.00,,,0.02,meteohub,2013-02-19 05:20:00,
2013-02-18 23:24:00,27.1,18.7,-100.00,West,276,7.0,29.0,70,0.00,,,0.02,meteohub,2013-02-19 05:24:00,
2013-02-18 23:30:00,26.8,18.0,-100.00,NW,306,17.0,29.0,69,0.00,,,0.02,meteohub,2013-02-19 05:30:00,
2013-02-18 23:35:00,26.8,18.0,-100.00,West,261,12.0,29.0,69,0.00,,,0.02,meteohub,2013-02-19 05:35:00,
2013-02-18 23:40:00,26.4,17.2,-100.00,SW,233,5.0,29.0,68,0.00,,,0.02,meteohub,2013-02-19 05:40:00,
2013-02-18 23:45:00,26.2,17.1,-100.00,WNW,292,17.0,29.0,68,0.00,,,0.02,meteohub,2013-02-19 05:45:00,
2013-02-18 23:49:00,26.1,16.9,-100.00,West,275,2.0,29.0,68,0.00,,,0.02,meteohub,2013-02-19 05:49:00,
2013-02-18 23:54:00,26.1,17.2,-100.00,West,265,9.0,29.0,69,0.00,,,0.02,meteohub,2013-02-19 05:54:00,